OpenBCM V1.08-5-g2f4a (Linux)

Packet Radio Mailbox

IZ3LSV

[San Dona' di P. JN]

 Login: GUEST





  
I0OJJ  > KEPS     28.03.25 02:25l 328 Lines 15596 Bytes #134 (0) @ AMSAT
BID : ORB25087.1
Read: GUEST
Subj: 2Line Orbital Elements 25087.AMSAT
Path: IZ3LSV<I0OJJ
Sent: 250328/0025z @:I0OJJ.ITA.EU [Rome] obcm1.08-6-g5b69
From: I0OJJ @ I0OJJ.ITA.EU (Gustavo)
To:   KEPS @ AMSAT
X-Info: This message was generated automatically


QST de W1STR

AMSAT Orbital Elements for Amateur Satellites in TLE Format
From Orbital Analysis Office
New England Sci-Tech STEM Education Center
Natick, MA March 28, 2025
To all radio amateurs


These element sets describe the orbits of various satellites 
in use by the amateur radio community. For details see:
www.amsat.org/keplerian-elements-formats/

A daily update of element sets is available at:
www.amsat.org/tle/daily-bulletin.txt
or without bulletin text:
www.amsat.org/tle/dailytle.txt


AO-07
1 07530U 74089B   25086.53336183 -.00000018  00000-0  17828-3 0  9995
2 07530 101.9955  90.0047 0011874 263.2837 249.2615 12.53687734304540
UO-11
1 14781U 84021B   25086.75970799  .00004223  00000-0  45408-3 0  9995
2 14781  97.7461  54.6390 0006810 210.1925 149.8900 14.89029571211651
AO-27
1 22825U 93061C   25086.43998259  .00000461  00000-0  19328-3 0  9995
2 22825  98.7451 147.5992 0007823 337.3782  22.7054 14.30761760643115
FO-29
1 24278U 96046B   25086.44708346  .00000002  00000-0  37490-4 0  9994
2 24278  98.5834 350.0746 0350049 174.4748 186.0416 13.53241759412747
NOAA-15
1 25338U 98030A   25086.83565902  .00000557  00000-0  24699-3 0  9990
2 25338  98.5435 113.7166 0009727 209.1790 150.8848 14.26925313397880
GO-32
1 25397U 98043D   25086.50867798  .00000368  00000-0  17969-3 0  9993
2 25397  98.9643  64.1076 0002341  74.4410 285.7027 14.24283554387749
ISS
1 25544U 98067A   25086.83692473  .00032900  00000-0  57813-3 0  9994
2 25544  51.6384 349.9405 0004021  57.1217  56.5760 15.50186669502545
NO-44
1 26931U 01043C   25086.38742704  .00000656  00000-0  27663-3 0  9999
2 26931  67.0515 319.6607 0005576 268.1384  91.9079 14.31675291226480
SO-50
1 27607U 02058C   25086.29932518  .00006008  00000-0  77131-3 0  9993
2 27607  64.5534  69.7706 0047697 351.9841   8.0497 14.81259544198223
CO-55
1 27844U 03031E   25086.75945493  .00001156  00000-0  52337-3 0  9995
2 27844  98.6793  95.9795 0010495  47.3602 312.8459 14.23905069128163
CO-57
1 27848U 03031J   25086.74395286  .00000972  00000-0  44855-3 0  9998
2 27848  98.6820  96.0250 0010617  62.6832 297.5426 14.23252626127916
RS-22
1 27939U 03042A   25086.87446568  .00004068  00000-0  65513-3 0  9999
2 27939  98.3201 254.5827 0010636 240.2802 254.2291 14.72044096149985
NOAA-18
1 28654U 05018A   25086.79700314  .00000555  00000-0  31779-3 0  9996
2 28654  98.8446 167.0985 0013608 342.9779  17.0935 14.13558339 23328
CO-58
1 28895U 05043F   25086.36676660  .00006441  00000-0  10662-2 0  9997
2 28895  98.2369 229.8578 0014945 178.5186 181.6067 14.70574173 36031
CO-65
1 32785U 08021C   25086.75329676  .00013320  00000-0  98573-3 0  9996
2 32785  97.7770  57.4583 0012402  99.0624 261.2005 15.03230396918056
AAUSAT2
1 32788U 08021F   25086.70111059  .00227659  00000-0  26327-2 0  9997
2 32788  97.6041  80.8804 0005626 132.8429 227.3301 15.61097983921866
CO-66
1 32791U 08021J   25085.86644977  .00035094  00000-0  18223-2 0  9993
2 32791  97.7227  64.3962 0006979  77.1399 283.0612 15.16001969919161
RS-30
1 32953U 08025A   25086.84397149  .00000058  00000-0  34886-3 0  9998
2 32953  82.4975 273.0453 0019157 204.3567 155.6609 12.43160985764371
NOAA-19
1 33591U 09005A   25086.86217907  .00000503  00000-0  29216-3 0  9997
2 33591  99.0046 151.1326 0013420 208.1049 151.9399 14.13324207831695
SRMSAT
1 37841U 11058D   25086.72825388  .00000736  00000-0  25644-3 0  9992
2 37841  19.9710 241.4497 0011768 333.2141 142.5231 14.11397398694882
ZACUBE-1
1 39417U 13066B   25086.82127886  .00014335  00000-0  12709-2 0  9990
2 39417  97.7720  44.3089 0042949 299.9548  59.7412 14.95606409613888
Delfi-N3xt
1 39428U 13066N   25086.51049363  .00017319  00000-0  18159-2 0  9991
2 39428  97.8366   5.0636 0085138 243.8322 115.4120 14.86924100608065
GOMX-1
1 39430U 13066Q   25086.84546511  .00006191  00000-0  96618-3 0  9990
2 39430  97.6945 310.0113 0134808  68.6268 292.9261 14.67211832604590
LO-74
1 39440U 13066AA  25086.58342699  .00012976  00000-0  13321-2 0  9990
2 39440  97.8431  31.7287 0065267  64.9654 295.8320 14.88929453611620
AO-73
1 39444U 13066AE  25086.64928338  .00019077  00000-0  14824-2 0  9999
2 39444  97.7635  48.4229 0039151 276.6455  83.0313 15.00738645613081
DTUSAT-2
1 40030U 14033W   25086.48675599  .00018085  00000-0  12188-2 0  9996
2 40030  98.0481  54.8303 0007743 323.7262  36.3438 15.06709952585748
EO-80
1 40032U 14033Y   25086.37789854  .00021104  00000-0  14178-2 0  9993
2 40032  98.0373  54.4734 0006556 245.7113 114.3428 15.06797354585191
LILACSAT-2
1 40908U 15049K   25086.82511677  .00024488  00000-0  68507-3 0  9993
2 40908  97.5128 105.4774 0011602  71.4000 288.8503 15.36588518526899
IO-86
1 40931U 15052B   25038.81889873  .00001817  00000-0  15548-3 0  9993
2 40931   6.0001 108.1159 0012838 187.7041 172.2889 14.78568669506492
Horyu-4
1 41340U 16012D   25086.21893019  .00048622  00000-0  14913-2 0  9998
2 41340  30.9969 270.5627 0008727   9.9718 350.1098 15.32492748501352
Lapan A3
1 41603U 16040E   25086.83583509  .00008034  00000-0  28631-3 0  9995
2 41603  97.1392  94.3639 0011718 162.7116 197.4526 15.29103909486510
CAS-2T
1 41847U 16066G   25086.71548800  .00003687  00000-0  53049-3 0  9995
2 41847  98.4249 161.8142 0347756  42.1006 320.6348 14.43240814440364
CAS-4B
1 42759U 17034B   25086.89266079  .00085844  00000-0  13238-2 0  9998
2 42759  43.0105  37.8694 0016610 140.4454 219.7623 15.53024164431105
CAS-4A
1 42761U 17034D   25086.90737852  .00087760  00000-0  13190-2 0  9991
2 42761  43.0142  35.5419 0018016 145.6868 214.5161 15.53693292431123
TechnoSat
1 42829U 17042E   25086.46794510  .00010950  00000-0  86032-3 0  9993
2 42829  97.3908 258.7313 0013435 166.5771 193.5813 15.00979597419603
AO-91
1 43017U 17073E   25086.67806860  .00018712  00000-0  97999-3 0  9990
2 43017  97.5366 319.3512 0179026  58.3240 303.5305 15.02977269398102
S-Net D
1 43186U 18014G   25086.21424602  .00015535  00000-0  93910-3 0  9992
2 43186  97.5693 349.9074 0010931 116.0082 244.2274 15.10703278391148
S-Net B
1 43187U 18014H   25086.15249049  .00015388  00000-0  93057-3 0  9994
2 43187  97.5697 349.8146 0011824 111.7523 248.4966 15.10682658391137
S-Net A
1 43188U 18014J   25086.28112145  .00015829  00000-0  95641-3 0  9996
2 43188  97.5707 350.0825 0011712 112.3942 247.8529 15.10710165391151
S-Net C
1 43189U 18014K   25086.48591796  .00014010  00000-0  84728-3 0  9997
2 43189  97.5720 350.2865 0013352 105.6191 254.6513 15.10686356389730
Ten-Koh
1 43677U 18084G   25086.43411375  .00008582  00000-0  69387-3 0  9996
2 43677  98.0960 255.7340 0010447 155.8841 204.2873 15.00009469349124
PO-101
1 43678U 18084H   25086.85068510  .00006324  00000-0  54323-3 0  9998
2 43678  98.0986 260.2019 0008439 165.1946 194.9524 14.97793760349346
QO-100
1 43700U 18090A   25086.25930619  .00000141  00000-0  00000-0 0  9994
2 43700   0.0185 158.4860 0001395 239.0468 266.5483  1.00271158 23196
MinXSS-2
1 43758U 18099A   25086.61195656  .00032824  00000-0  14090-2 0  9999
2 43758  97.5102 152.5356 0013003  61.9557 298.2992 15.22559827345706
AO-95
1 43770U 18099N   25086.41357343  .00025058  00000-0  13281-2 0  9996
2 43770  97.5018 145.3772 0012675 110.7965 249.4627 15.15302867345310
RANGE-A
1 43773U 18099R   25086.11683350  .00013419  00000-0  87182-3 0  9996
2 43773  97.4588 136.6865 0013386  89.8299 270.4464 15.08069636344998
MOVE-II
1 43780U 18099Y   25086.76103281  .00146307  00000-0  24824-2 0  9991
2 43780  97.4741 158.2541 0001421  90.7177 269.4237 15.50962570346276
SNUSat 2
1 43782U 18099AA  25086.05054014  .00020842  00000-0  11804-2 0  9993
2 43782  97.4701 142.3597 0013299  57.5164 302.7351 15.12967880345221
SnugLite
1 43784U 18099AC  25086.12904834  .00024897  00000-0  13110-2 0  9993
2 43784  97.4514 141.8633 0004679  71.8179 288.3562 15.15594050345352
ITASat 1
1 43786U 18099AE  25086.57466825  .00017119  00000-0  10083-2 0  9992
2 43786  97.4662 142.5882 0016214 102.6457 257.6587 15.11560226345273
EAGLET 1
1 43790U 18099AJ  25086.13306215  .00012172  00000-0  79002-3 0  9996
2 43790  97.4864 142.3374 0014005  87.2457 273.0374 15.08123052344846
ESEO
1 43792U 18099AL  25086.40899664  .00006068  00000-0  46406-3 0  9992
2 43792  97.4597 136.8309 0012551  60.2020 300.0451 15.02205998344681
CSIM
1 43793U 18099AM  25086.60927659  .00146226  00000-0  24394-2 0  9993
2 43793  97.4932 160.1999 0003537  20.3115 339.8277 15.51436651346095
JO-97
1 43803U 18099AX  25086.11953793  .00031245  00000-0  15143-2 0  9995
2 43803  97.4758 145.9435 0008343  54.8040 305.3974 15.18438241345460
Suomi 100
1 43804U 18099AY  25086.41834680  .00025606  00000-0  13149-2 0  9990
2 43804  97.4826 145.7259 0013617  52.4922 307.7546 15.16403643345458
ISAT
1 43879U 18111D   25086.30781780  .00048693  00000-0  18853-2 0  9995
2 43879  97.6007 359.2438 0012339  97.7283 262.5357 15.25945309340336
UWE-4
1 43880U 18111E   25086.17686678  .00041509  00000-0  17668-2 0  9994
2 43880  97.5947 358.0653 0015182 107.9819 252.3073 15.22764434342298
Sparrow
1 43881U 18111F   25086.41016589  .00048168  00000-0  18095-2 0  9993
2 43881  97.6141   1.9573 0009781 126.4086 233.8056 15.26978453340454
Prox-1
1 44339U 19036A   25086.67382756  .00021655  00000-0  29096-2 0  9994
2 44339  23.9972 186.5603 0006454 315.3720  44.6257 14.77775330307154
SONATE
1 44400U 19038Q   25086.51011071  .00135729  00000-0  12376-2 0  9998
2 44400  97.7037 105.0146 0010387 149.7191 210.4671 15.67396879317884
Taurus 1
1 44530U 19059C   25086.83748897  .00020101  00000-0  38082-2 0  9992
2 44530  98.5962 222.8441 0009979 255.8743 104.1349 14.64282923293140
